This demonstration page uses our WeatherBlox Daily Observations layout. Learn more.

Left ArrowRight Arrow

Hourly Observations for May 17, 2016

Temp ( °F °C ) Dew Point ( °F °C ) Humidity (%) Winds ( mph kmh ) Pressure ( in mb ) Visibility ( mi km ) Precip ( " mm )
12:21 am 00:21 Cloudy 51 10.6 48 8.9 89 89 NE 10 17 30.18 1022 9 14 0.00 0.00
12:29 am 00:29 Cloudy 51 10.6 48 8.9 89 89 NE 9 15 30.18 1022 10 16 0.00 0.00
12:39 am 00:39 Cloudy 51 10.6 48 8.9 89 89 NE 9 15 30.18 1022 10 16 0.00 0.00
12:54 am 00:54 Cloudy 51 10.6 48 8.9 89 89 NNE 7 11 30.16 1022 10 16 0.00 0.00
1:24 am 01:24 Mostly Cloudy 50 10 48 9 94 94 NE 6 9 30.21 1023 9 14 0.00 0.00
1:54 am 01:54 Partly Cloudy 48 8.9 46 7.8 93 93 NE 7 11 30.19 1022 8 13 0.00 0.00
2:40 am 02:40 Mostly Cloudy 46 8 46 8 100 100 NNE 8 13 30.21 1023 8 13 0.00 0.00
2:54 am 02:54 Mostly Cloudy 48 8.9 46 7.8 93 93 NNE 7 11 30.18 1022 8 13 0.00 0.00
3:05 am 03:05 Partly Cloudy 47 8.3 46 7.8 97 97 NNE 7 11 30.21 1023 8 13 0.00 0.00
3:54 am 03:54 Mostly Clear 46 7.8 45 7.2 96 96 NNE 5 7 30.19 1023 7 11 0.00 0.00
4:11 am 04:11 Mostly Cloudy 46 7.8 44 6.7 93 93 NNE 7 11 30.21 1023 7 11 0.00 0.00
4:23 am 04:23 Partly Cloudy 46 7.8 44 6.7 93 93 N 5 7 30.21 1023 7 11 0.00 0.00
4:47 am 04:47 Mostly Cloudy 47 8.3 46 7.8 97 97 N 5 7 30.24 1024 8 13 0.00 0.00
4:54 am 04:54 Mostly Cloudy 47 8.3 45 7.2 93 93 N 5 7 30.20 1023 7 11 0.00 0.00
5:09 am 05:09 Partly Cloudy 46 7.8 45 7.2 96 96 N 7 11 30.24 1024 7 11 0.00 0.00
5:54 am 05:54 Clear with Mist and Fog 45 7.2 45 7.2 100 100 NNE 3 6 30.22 1023 6 10 0.00 0.00
6:54 am 06:54 Sunny with Mist and Fog 46 7.8 44 6.7 93 93 N 3 6 30.23 1024 4 6 0.00 0.00
7:54 am 07:54 Sunny with Mist and Fog 49 9.4 47 8.3 93 93 N 6 9 30.25 1025 4 6 0.00 0.00
8:54 am 08:54 Sunny 51 10.6 48 8.9 89 89 N 8 13 30.26 1025 7 11 0.00 0.00
9:54 am 09:54 Sunny 56 13.3 49 9.4 77 77 N 7 11 30.25 1025 10 16 0.00 0.00
10:54 am 10:54 Sunny 58 14.4 49 9.4 72 72 Calm 30.25 1025 10 16 0.00 0.00
11:54 am 11:54 Sunny 62 16.7 50 10 65 65 NW 6 9 30.25 1025 10 16 0.00 0.00
12:39 pm 12:39 Mostly Cloudy 64 17.8 49 9.4 58 58 NE 7 11 30.27 1025 10 16 0.00 0.00
12:54 pm 12:54 Mostly Cloudy 64 17.8 48 8.9 56 56 E 3 6 30.25 1024 10 16 0.00 0.00
1:01 pm 13:01 Mostly Cloudy 64 18 48 9 56 56 VRB 6 9 30.24 1024 10 16 0.00 0.00
1:54 pm 13:54 Mostly Sunny 65 18.3 49 9.4 56 56 ENE 3 6 30.24 1024 10 16 0.00 0.00
2:54 pm 14:54 Mostly Cloudy 67 19.4 48 8.9 51 51 VRB 3 6 30.22 1024 10 16 0.00 0.00
3:54 pm 15:54 Mostly Cloudy 67 19.4 46 7.8 47 47 VRB 3 6 30.21 1023 10 16 0.00 0.00
4:54 pm 16:54 Cloudy 67 19.4 44 6.7 44 44 N 8 13 30.20 1023 10 16 0.00 0.00
5:54 pm 17:54 Mostly Sunny 68 20 45 7.2 44 44 ENE 6 9 30.19 1022 10 16 0.00 0.00
6:54 pm 18:54 Sunny 68 20 45 7.2 44 44 NNE 7 11 30.18 1022 10 16 0.00 0.00
7:54 pm 19:54 Sunny 65 18.3 45 7.2 49 49 NNE 6 9 30.18 1022 10 16 0.00 0.00
8:54 pm 20:54 Clear 60 15.6 43 6.1 53 53 NNE 5 7 30.21 1023 10 16 0.00 0.00
9:54 pm 21:54 Clear 57 13.9 44 6.7 62 62 Calm 30.23 1024 10 16 0.00 0.00
10:54 pm 22:54 Clear 51 10.6 44 6.7 77 77 NW 3 6 30.24 1024 10 16 0.00 0.00
11:54 pm 23:54 Clear 50 10 43 6.1 77 77 N 3 6 30.24 1024 10 16 0.00 0.00

Powered by AerisWeather